START_TIME,STEP,MOV.,H8,t_acc.,H43,t_acc.,M25,t_acc.,H9,t_acc.
1981-08-24 09:02:35.960 ,0,0,0.,12.0,0.,12.0,0.,12.0,0.,12.0
1981-08-24 09:02:47.970 ,0,0,0.,12.0,0.,12.0,0.,12.0,0.,12.0
1981-08-24 09:02:54.570 ,1,0,0.,12.0,0.,12.0,0.,12.0,0.,12.0
1981-08-24 09:03:06.570 ,1,0,0.,12.0,0.,12.0,0.,12.0,0.,12.0
1981-08-24 09:03:18.570 ,2,0,0.,12.0,0.,12.0,0.,12.0,0.,12.0
1981-08-24 09:03:30.570 ,2,0,0.,12.0,0.,12.0,0.,12.0,0.,12.0
1981-08-24 09:03:42.570 ,3,0,0.,12.0,0.,12.0,0.,12.0,0.,12.0
1981-08-24 09:03:54.570 ,3,0,0.,12.0,0.,12.0,0.,12.0,0.,12.0
1981-08-24 09:04:06.570 ,4,0,0.,12.0,0.,12.0,0.,12.0,0.,12.0
1981-08-24 09:04:18.570 ,4,0,0.,12.0,0.,12.0,0.,12.0,0.,12.0
1981-08-24 09:04:30.570 ,5,0,0.,12.0,0.,12.0,0.,12.0,0.,12.0
1981-08-24 09:04:42.570 ,5,0,0.,12.0,0.,12.0,0.,12.0,0.,12.0
1981-08-24 09:04:54.570 ,6,0,0.,12.0,0.,12.0,0.,12.0,0.,12.0
1981-08-24 09:05:06.570 ,6,0,0.,12.0,0.,12.0,0.,12.0,0.,12.0
1981-08-24 09:05:18.570 ,7,0,0.,12.0,0.,12.0,0.,12.0,0.,12.0
1981-08-24 09:05:30.570 ,7,0,0.,12.0,0.,12.0,0.,12.0,0.,12.0
1981-08-24 09:05:42.570 ,7,0,0.,12.0,0.,12.0,0.,12.0,0.,12.0
1981-08-24 09:05:54.570 ,7,0,0.,12.0,0.,12.0,0.,12.0,0.,12.0
1981-08-24 09:06:06.570 ,7,0,0.,12.0,0.,12.0,0.,12.0,0.,12.0
1981-08-24 09:06:18.570 ,7,0,0.,12.0,0.,12.0,0.,12.0,0.,12.0
1981-08-24 09:06:30.560 ,6,0,0.,12.0,0.,12.0,0.,12.0,0.,12.0
1981-08-24 09:06:42.560 ,6,0,0.,12.0,0.,12.0,0.,12.0,0.,12.0
1981-08-24 09:06:54.560 ,6,0,0.,12.0,0.,12.0,0.,12.0,0.,12.0
1981-08-24 09:07:06.560 ,6,0,0.,12.0,0.,12.0,0.,12.0,0.,12.0
1981-08-24 09:07:18.560 ,5,0,0.,12.0,0.,12.0,0.,12.0,0.,12.0
1981-08-24 09:07:30.560 ,5,0,0.,12.0,0.,12.0,0.,12.0,0.,12.0
1981-08-24 09:07:42.560 ,5,0,0.,12.0,0.,12.0,0.,12.0,0.,12.0
1981-08-24 09:07:54.560 ,5,0,0.,12.0,0.,12.0,0.,12.0,0.,12.0
1981-08-24 09:08:06.560 ,4,0,0.,12.0,0.,12.0,0.,12.0,0.,12.0
1981-08-24 09:08:18.560 ,4,0,0.,12.0,0.,12.0,0.,12.0,0.,12.0
1981-08-24 09:08:30.560 ,4,0,0.,12.0,0.,12.0,0.,12.0,0.,12.0
1981-08-24 09:08:42.560 ,4,0,0.,12.0,0.,12.0,0.,12.0,0.,12.0
1981-08-24 09:08:54.560 ,3,0,0.,12.0,0.,12.0,0.,12.0,0.,12.0
1981-08-24 09:09:06.560 ,3,0,0.,12.0,0.,12.0,0.,12.0,0.,12.0
1981-08-24 09:09:18.560 ,3,0,0.,12.0,0.,12.0,0.,12.0,0.,12.0
1981-08-24 09:09:30.560 ,3,0,0.,12.0,0.,12.0,0.,12.0,0.,12.0
1981-08-24 09:09:42.560 ,2,0,0.,12.0,0.,12.0,0.,12.0,0.,12.0
1981-08-24 09:09:54.560 ,2,0,0.,12.0,0.,12.0,0.,12.0,0.,12.0
1981-08-24 09:10:06.560 ,2,0,0.,12.0,0.,12.0,0.,12.0,0.,12.0
1981-08-24 09:10:18.560 ,2,0,0.,12.0,0.,12.0,0.,12.0,0.,12.0
1981-08-24 09:10:30.560 ,1,0,0.,12.0,0.,12.0,0.,12.0,0.,12.0
1981-08-24 09:10:42.560 ,1,0,0.,12.0,0.,12.0,0.,12.0,0.,12.0
1981-08-24 09:10:54.560 ,1,0,0.,12.0,0.,12.0,0.,12.0,0.,12.0
1981-08-24 09:11:06.560 ,1,0,0.,12.0,0.,12.0,0.,12.0,0.,12.0
1981-08-24 09:11:18.560 ,0,0,0.,12.0,0.,12.0,0.,12.0,0.,12.0
1981-08-24 09:11:30.560 ,0,0,0.,12.0,0.,12.0,0.,12.0,0.,12.0
1981-08-24 09:11:42.560 ,0,0,0.,12.0,0.,12.0,0.,12.0,0.,12.0
1981-08-24 09:11:54.560 ,0,0,0.,12.0,0.,12.0,0.,12.0,0.,12.0
1981-08-24 09:12:06.560 ,0,0,0.,12.0,0.,12.0,0.,12.0,0.,12.0
1981-08-24 09:12:18.560 ,0,0,0.,12.0,0.,12.0,0.,12.0,0.,12.0
1981-08-24 09:12:30.560 ,0,0,0.,12.0,0.,12.0,0.,12.0,0.,12.0
1981-08-24 09:12:42.560 ,0,0,0.,12.0,0.,12.0,0.,12.0,0.,12.0
1981-08-24 09:12:54.560 ,1,0,0.,12.0,0.,12.0,0.,12.0,0.,12.0
1981-08-24 09:13:06.560 ,1,0,0.,12.0,0.,12.0,0.,12.0,0.,12.0
1981-08-24 09:13:18.560 ,1,0,0.,12.0,0.,12.0,0.,12.0,0.,12.0
1981-08-24 09:13:30.560 ,1,0,0.,12.0,0.,12.0,0.,12.0,0.,12.0
1981-08-24 09:13:42.560 ,2,0,0.,12.0,0.,12.0,0.,12.0,0.,12.0
1981-08-24 09:13:54.560 ,2,0,0.,12.0,0.,12.0,0.,12.0,0.,12.0
1981-08-24 09:14:06.560 ,2,0,0.,12.0,0.,12.0,0.,12.0,0.,12.0
1981-08-24 09:14:18.560 ,2,0,0.,12.0,0.,12.0,0.,12.0,0.,12.0
1981-08-24 09:14:30.560 ,3,0,0.,12.0,0.,12.0,0.,12.0,0.,12.0
1981-08-24 09:14:42.560 ,3,0,0.,12.0,0.,12.0,0.,12.0,0.,12.0
1981-08-24 09:14:54.560 ,3,0,0.,12.0,0.,12.0,0.,12.0,0.,12.0
1981-08-24 09:15:06.560 ,3,0,0.,12.0,0.,12.0,0.,12.0,0.,12.0
1981-08-24 09:15:18.560 ,4,0,0.,12.0,0.,12.0,0.,12.0,0.,12.0
1981-08-24 09:15:30.560 ,4,0,0.,12.0,0.,12.0,0.,12.0,0.,12.0
1981-08-24 09:15:42.560 ,4,0,0.,12.0,0.,12.0,0.,12.0,0.,12.0
1981-08-24 09:15:54.560 ,4,0,0.,12.0,0.,12.0,0.,12.0,0.,12.0
1981-08-24 09:16:06.560 ,5,0,0.,12.0,0.,12.0,0.,12.0,0.,12.0
1981-08-24 09:16:18.560 ,5,0,0.,12.0,0.,12.0,0.,12.0,0.,12.0
1981-08-24 09:16:30.560 ,5,0,0.,12.0,0.,12.0,0.,12.0,0.,12.0
1981-08-24 09:16:42.560 ,5,0,0.,12.0,0.,12.0,0.,12.0,0.,12.0
1981-08-24 09:16:54.560 ,6,0,0.,12.0,0.,12.0,0.,12.0,0.,12.0
1981-08-24 09:17:06.560 ,6,0,0.,12.0,0.,12.0,0.,12.0,0.,12.0
1981-08-24 09:17:18.560 ,6,0,0.,12.0,0.,12.0,0.,12.0,0.,12.0
1981-08-24 09:17:30.560 ,6,0,0.,12.0,0.,12.0,0.,12.0,0.,12.0
1981-08-24 09:17:42.560 ,7,0,0.,12.0,0.,12.0,0.,12.0,0.,12.0
1981-08-24 09:17:54.560 ,7,0,0.,12.0,0.,12.0,0.,12.0,0.,12.0
1981-08-24 09:18:06.560 ,7,0,0.,12.0,0.,12.0,0.,12.0,0.,12.0
1981-08-24 09:18:18.560 ,7,0,0.,12.0,0.,12.0,0.,12.0,0.,12.0
1981-08-24 09:18:30.560 ,7,0,0.,12.0,0.,12.0,0.,12.0,0.,12.0
1981-08-24 09:18:42.560 ,7,0,0.,12.0,0.,12.0,0.,12.0,0.,12.0
1981-08-24 09:18:54.560 ,6,0,0.,12.0,0.,12.0,0.,12.0,0.,12.0
1981-08-24 09:19:06.560 ,6,0,0.,12.0,0.,12.0,0.,12.0,0.,12.0
1981-08-24 09:19:18.560 ,5,0,0.,12.0,0.,12.0,0.,12.0,0.,12.0
1981-08-24 09:19:30.560 ,5,0,0.,12.0,0.,12.0,0.,12.0,0.,12.0
1981-08-24 09:19:42.560 ,4,0,0.,12.0,0.,12.0,0.,12.0,0.,12.0
1981-08-24 09:19:54.560 ,4,0,0.,12.0,0.,12.0,0.,12.0,0.,12.0
1981-08-24 09:20:06.560 ,3,0,0.,12.0,0.,12.0,0.,12.0,0.,12.0
1981-08-24 09:20:18.560 ,3,0,0.,12.0,0.,12.0,0.,12.0,0.,12.0
1981-08-24 09:20:30.560 ,2,0,0.,12.0,0.,12.0,0.,12.0,0.,12.0
1981-08-24 09:20:42.560 ,2,0,0.,12.0,0.,12.0,0.,12.0,0.,12.0
1981-08-24 09:20:54.560 ,1,0,0.,12.0,0.,12.0,0.,12.0,0.,12.0
1981-08-24 09:21:06.560 ,1,0,0.,12.0,0.,12.0,0.,12.0,0.,12.0
1981-08-24 09:21:18.560 ,0,0,0.,12.0,0.,12.0,0.,12.0,0.,12.0
1981-08-24 09:21:30.560 ,0,0,0.,12.0,0.,12.0,0.,12.0,0.,12.0
1981-08-24 09:21:42.560 ,0,0,0.,12.0,0.,12.0,0.,12.0,0.,12.0
1981-08-24 09:21:54.560 ,0,0,0.,12.0,0.,12.0,0.,12.0,0.,12.0
1981-08-24 09:22:06.560 ,1,0,0.,12.0,0.,12.0,0.,12.0,0.,12.0
1981-08-24 09:22:18.560 ,1,0,0.,12.0,0.,12.0,0.,12.0,0.,12.0
1981-08-24 09:22:30.560 ,2,0,0.,12.0,0.,12.0,0.,12.0,0.,12.0
1981-08-24 09:22:42.560 ,2,0,0.,12.0,0.,12.0,0.,12.0,0.,12.0
1981-08-24 09:22:54.560 ,3,0,0.,12.0,0.,12.0,0.,12.0,0.,12.0
1981-08-24 09:23:06.560 ,3,0,0.,12.0,0.,12.0,0.,12.0,0.,12.0
1981-08-24 09:23:18.560 ,4,0,0.,12.0,0.,12.0,0.,12.0,0.,12.0
1981-08-24 09:23:30.560 ,4,0,0.,12.0,0.,12.0,0.,12.0,0.,12.0
1981-08-24 09:23:42.560 ,5,0,0.,12.0,0.,12.0,0.,12.0,0.,12.0
1981-08-24 09:23:54.560 ,5,0,0.,12.0,0.,12.0,0.,12.0,0.,12.0
1981-08-24 09:24:06.560 ,6,0,0.,12.0,0.,12.0,0.,12.0,0.,12.0
1981-08-24 09:24:18.560 ,6,0,0.,12.0,0.,12.0,0.,12.0,0.,12.0
1981-08-24 09:24:30.560 ,7,0,0.,12.0,0.,12.0,0.,12.0,0.,12.0
1981-08-24 09:24:42.560 ,7,0,0.,12.0,0.,12.0,0.,12.0,0.,12.0
1981-08-24 09:24:54.560 ,7,0,0.,12.0,0.,12.0,0.,12.0,0.,12.0
1981-08-24 09:25:06.560 ,7,0,0.,12.0,0.,12.0,0.,12.0,0.,12.0
1981-08-24 09:25:18.560 ,7,0,0.,12.0,0.,12.0,0.,12.0,0.,12.0
1981-08-24 09:25:30.560 ,7,0,0.,12.0,0.,12.0,0.,12.0,0.,12.0
1981-08-24 09:25:42.560 ,6,0,0.,12.0,0.,12.0,0.,12.0,0.,12.0
1981-08-24 09:25:54.560 ,6,0,0.,12.0,0.,12.0,0.,12.0,0.,12.0
1981-08-24 09:26:06.560 ,6,0,0.,12.0,0.,12.0,0.,12.0,0.,12.0
1981-08-24 09:26:18.560 ,6,0,0.,12.0,0.,12.0,0.,12.0,0.,12.0
1981-08-24 09:26:30.560 ,5,0,0.,12.0,0.,12.0,0.,12.0,0.,12.0
1981-08-24 09:26:42.560 ,5,0,0.,12.0,0.,12.0,0.,12.0,0.,12.0
1981-08-24 09:26:54.560 ,5,0,0.,12.0,0.,12.0,0.,12.0,0.,12.0
1981-08-24 09:27:06.560 ,5,0,0.,12.0,0.,12.0,0.,12.0,0.,12.0
1981-08-24 09:27:18.560 ,4,0,0.,12.0,0.,12.0,0.,12.0,0.,12.0
1981-08-24 09:27:30.560 ,4,0,0.,12.0,0.,12.0,0.,12.0,0.,12.0
1981-08-24 09:27:42.560 ,4,0,0.,12.0,0.,12.0,0.,12.0,0.,12.0
1981-08-24 09:27:54.560 ,4,0,0.,12.0,0.,12.0,0.,12.0,0.,12.0
1981-08-24 09:28:06.560 ,3,0,0.,12.0,0.,12.0,0.,12.0,0.,12.0
1981-08-24 09:28:18.560 ,3,0,0.,12.0,0.,12.0,0.,12.0,0.,12.0
1981-08-24 09:28:30.560 ,3,0,0.,12.0,0.,12.0,0.,12.0,0.,12.0
1981-08-24 09:28:42.560 ,3,0,0.,12.0,0.,12.0,0.,12.0,0.,12.0
1981-08-24 09:29:42.560 ,0,0,0.,12.0,0.,12.0,0.,12.0,0.,12.0
1981-08-24 09:29:54.560 ,0,0,0.,12.0,0.,12.0,0.,12.0,0.,12.0
1981-08-24 09:30:06.560 ,0,0,0.,12.0,0.,12.0,0.,12.0,0.,12.0
1981-08-24 09:30:18.560 ,0,0,0.,12.0,0.,12.0,0.,12.0,0.,12.0
1981-08-24 09:30:30.560 ,0,0,0.,12.0,0.,12.0,0.,12.0,0.,12.0
1981-08-24 09:30:42.560 ,0,0,0.,12.0,0.,12.0,0.,12.0,0.,12.0
1981-08-24 09:30:54.560 ,0,0,0.,12.0,0.,12.0,0.,12.0,0.,12.0
1981-08-24 09:31:06.560 ,0,0,0.,12.0,0.,12.0,0.,12.0,0.,12.0
1981-08-24 09:31:18.560 ,0,0,0.,12.0,0.,12.0,0.,12.0,0.,12.0
1981-08-24 09:31:30.560 ,0,0,0.,12.0,0.,12.0,0.,12.0,0.,12.0
1981-08-24 09:31:42.560 ,0,0,0.,12.0,0.,12.0,0.,12.0,0.,12.0
1981-08-24 09:31:54.560 ,0,0,0.,12.0,0.,12.0,0.,12.0,0.,12.0
1981-08-24 09:32:06.560 ,1,0,0.,12.0,0.,12.0,0.,12.0,0.,12.0
1981-08-24 09:32:18.560 ,1,0,0.,12.0,0.,12.0,0.,12.0,0.,12.0
1981-08-24 09:32:30.560 ,1,0,0.,12.0,0.,12.0,0.,12.0,0.,12.0
1981-08-24 09:32:42.560 ,1,0,0.,12.0,0.,12.0,0.,12.0,0.,12.0
1981-08-24 09:32:54.560 ,2,0,0.,12.0,0.,12.0,0.,12.0,0.,12.0
1981-08-24 09:33:06.560 ,2,0,0.,12.0,0.,12.0,0.,12.0,0.,12.0
1981-08-24 09:33:18.560 ,2,0,0.,12.0,0.,12.0,0.,12.0,0.,12.0
1981-08-24 09:33:30.560 ,2,0,0.,12.0,0.,12.0,0.,12.0,0.,12.0
1981-08-24 09:33:42.560 ,3,0,0.,12.0,0.,12.0,0.,12.0,0.,12.0
1981-08-24 09:33:54.560 ,3,0,0.,12.0,0.,12.0,0.,12.0,0.,12.0
1981-08-24 09:34:06.560 ,3,0,0.,12.0,0.,12.0,0.,12.0,0.,12.0
1981-08-24 09:34:18.560 ,3,0,0.,12.0,0.,12.0,0.,12.0,0.,12.0
1981-08-24 09:34:06.560 ,3,0,0.,12.0,0.,12.0,0.,12.0,0.,12.0
1981-08-24 09:34:18.560 ,3,0,0.,12.0,0.,12.0,0.,12.0,0.,12.0
1981-08-24 09:34:30.560 ,4,0,0.,12.0,0.,12.0,0.,12.0,0.,12.0
1981-08-24 09:34:42.560 ,4,0,0.,12.0,0.,12.0,0.,12.0,0.,12.0
1981-08-24 09:34:54.560 ,4,0,0.,12.0,0.,12.0,0.,12.0,0.,12.0
1981-08-24 09:35:06.560 ,4,0,0.,12.0,0.,12.0,0.,12.0,0.,12.0
1981-08-24 09:35:18.560 ,5,0,0.,12.0,0.,12.0,0.,12.0,0.,12.0
1981-08-24 09:35:30.560 ,5,0,0.,12.0,0.,12.0,0.,12.0,0.,12.0
1981-08-24 09:35:42.560 ,5,0,0.,12.0,0.,12.0,0.,12.0,0.,12.0
1981-08-24 09:35:54.560 ,5,0,0.,12.0,0.,12.0,0.,12.0,0.,12.0
1981-08-24 09:36:06.560 ,6,0,0.,12.0,0.,12.0,0.,12.0,0.,12.0
1981-08-24 09:36:18.560 ,6,0,0.,12.0,0.,12.0,0.,12.0,0.,12.0
1981-08-24 09:36:30.560 ,6,0,0.,12.0,0.,12.0,0.,12.0,0.,12.0
1981-08-24 09:36:42.560 ,6,0,0.,12.0,0.,12.0,0.,12.0,0.,12.0
1981-08-24 09:36:54.560 ,7,0,0.,12.0,0.,12.0,0.,12.0,0.,12.0
1981-08-24 09:37:06.560 ,7,0,0.,12.0,0.,12.0,0.,12.0,0.,12.0
1981-08-24 09:37:18.560 ,7,0,0.,12.0,0.,12.0,0.,12.0,0.,12.0
1981-08-24 09:37:30.560 ,7,0,0.,12.0,0.,12.0,0.,12.0,0.,12.0
1981-08-24 09:37:42.560 ,7,0,0.,12.0,0.,12.0,0.,12.0,0.,12.0
1981-08-24 09:37:54.560 ,7,0,0.,12.0,0.,12.0,0.,12.0,0.,12.0
1981-08-24 09:38:06.560 ,6,0,0.,12.0,0.,12.0,0.,12.0,0.,12.0
1981-08-24 09:38:18.560 ,6,0,0.,12.0,0.,12.0,0.,12.0,0.,12.0
1981-08-24 09:38:30.560 ,0,0,0.,12.0,0.,12.0,0.,12.0,0.,12.0
1981-08-24 09:38:42.560 ,0,0,,0,,0,,0,,0
1981-08-24 09:38:54.560 ,0,0,,0,,0,,0,,0
1981-08-24 09:39:06.560 ,0,0,,0,,0,,0,,0
1981-08-24 09:38:54.560 ,4,0,0.,12.0,0.,12.0,0.,12.0,0.,12.0
1981-08-24 09:39:06.560 ,4,0,0.,12.0,0.,12.0,0.,12.0,0.,12.0
1981-08-24 09:39:18.560 ,3,0,0.,12.0,0.,12.0,0.,12.0,0.,12.0
1981-08-24 09:39:30.560 ,3,0,0.,12.0,0.,12.0,0.,12.0,0.,12.0
1981-08-24 09:39:42.560 ,2,0,0.,12.0,0.,12.0,0.,12.0,0.,12.0
1981-08-24 09:39:54.560 ,2,0,0.,12.0,0.,12.0,0.,12.0,0.,12.0
1981-08-24 09:40:06.560 ,1,0,0.,12.0,0.,12.0,0.,12.0,0.,12.0
1981-08-24 09:40:18.560 ,1,0,0.,12.0,0.,12.0,0.,12.0,0.,12.0
1981-08-24 09:40:30.560 ,0,0,0.,12.0,0.,12.0,0.,12.0,0.,12.0
1981-08-24 09:40:42.560 ,0,0,0.,12.0,0.,12.0,0.,12.0,0.,12.0
1981-08-24 09:40:54.560 ,0,0,0.,12.0,0.,12.0,0.,12.0,0.,12.0
1981-08-24 09:41:06.560 ,0,0,0.,12.0,0.,12.0,0.,12.0,0.,12.0
1981-08-24 09:41:18.560 ,1,0,0.,12.0,0.,12.0,0.,12.0,0.,12.0
1981-08-24 09:41:30.560 ,1,0,0.,12.0,0.,12.0,0.,12.0,0.,12.0
1981-08-24 09:41:42.560 ,2,0,0.,12.0,0.,12.0,0.,12.0,0.,12.0
1981-08-24 09:41:54.560 ,2,0,0.,12.0,0.,12.0,0.,12.0,0.,12.0
1981-08-24 09:42:06.560 ,3,0,0.,12.0,0.,12.0,0.,12.0,0.,12.0
1981-08-24 09:42:18.560 ,3,0,0.,12.0,0.,12.0,0.,12.0,0.,12.0
1981-08-24 09:42:30.560 ,4,0,0.,12.0,0.,12.0,0.,12.0,0.,12.0
1981-08-24 09:42:42.560 ,4,0,0.,12.0,0.,12.0,0.,12.0,0.,12.0
1981-08-24 09:42:54.560 ,5,0,0.,12.0,0.,12.0,0.,12.0,0.,12.0
1981-08-24 09:43:06.560 ,5,0,0.,12.0,0.,12.0,0.,12.0,0.,12.0
1981-08-24 09:43:18.560 ,6,0,0.,12.0,0.,12.0,0.,12.0,0.,12.0
1981-08-24 09:43:30.560 ,6,0,0.,12.0,0.,12.0,0.,12.0,0.,12.0
1981-08-24 09:43:42.560 ,7,0,0.,12.0,0.,12.0,0.,12.0,0.,12.0
1981-08-24 09:43:54.560 ,7,0,0.,12.0,0.,12.0,0.,12.0,0.,12.0
1981-08-24 09:44:06.560 ,7,0,0.,12.0,0.,12.0,0.,12.0,0.,12.0
1981-08-24 09:44:18.560 ,7,0,0.,12.0,0.,12.0,0.,12.0,0.,12.0
1981-08-24 09:44:30.560 ,7,0,0.,12.0,0.,12.0,0.,12.0,0.,12.0
1981-08-24 09:44:42.560 ,7,0,0.,12.0,0.,12.0,0.,12.0,0.,12.0
1981-08-24 09:44:54.560 ,6,0,0.,12.0,0.,12.0,0.,12.0,0.,12.0
1981-08-24 09:45:06.560 ,6,0,0.,12.0,0.,12.0,0.,12.0,0.,12.0
1981-08-24 09:45:18.560 ,6,0,0.,12.0,0.,12.0,0.,12.0,0.,12.0
1981-08-24 09:45:30.560 ,6,0,0.,12.0,0.,12.0,0.,12.0,0.,12.0
1981-08-24 09:45:42.560 ,5,0,0.,12.0,0.,12.0,0.,12.0,0.,12.0
1981-08-24 09:45:54.560 ,5,0,0.,12.0,0.,12.0,0.,12.0,0.,12.0
1981-08-24 09:46:06.560 ,5,0,0.,12.0,0.,12.0,0.,12.0,0.,12.0
1981-08-24 09:46:18.560 ,5,0,0.,12.0,0.,12.0,0.,12.0,0.,12.0
1981-08-24 09:48:06.560 ,0,0,0.,12.0,0.,12.0,0.,12.0,0.,12.0
1981-08-24 09:48:18.560 ,0,0,0.,12.0,0.,12.0,0.,12.0,0.,12.0
1981-08-24 09:48:30.560 ,0,0,0.,12.0,0.,12.0,0.,12.0,0.,12.0
1981-08-24 09:48:42.560 ,0,0,0.,12.0,0.,12.0,0.,12.0,0.,12.0
1981-08-24 09:48:54.560 ,1,0,0.,12.0,0.,12.0,0.,12.0,0.,12.0
1981-08-24 09:49:06.560 ,1,0,0.,12.0,0.,12.0,0.,12.0,0.,12.0
1981-08-24 09:49:18.560 ,1,0,0.,12.0,0.,12.0,0.,12.0,0.,12.0
1981-08-24 09:49:30.560 ,1,0,0.,12.0,0.,12.0,0.,12.0,0.,12.0
1981-08-24 09:49:42.560 ,0,0,0.,12.0,0.,12.0,0.,12.0,0.,12.0
1981-08-24 09:49:54.560 ,0,0,0.,12.0,0.,12.0,0.,12.0,0.,12.0
1981-08-24 09:50:06.560 ,0,0,0.,12.0,0.,12.0,0.,12.0,0.,12.0
1981-08-24 09:50:18.560 ,0,0,0.,12.0,0.,12.0,0.,12.0,0.,12.0
1981-08-24 09:50:30.560 ,0,0,0.,12.0,0.,12.0,0.,12.0,0.,12.0
1981-08-24 09:50:42.560 ,0,0,0.,12.0,0.,12.0,0.,12.0,0.,12.0
1981-08-24 09:50:54.560 ,0,0,0.,12.0,0.,12.0,0.,12.0,0.,12.0
1981-08-24 09:51:06.560 ,0,0,0.,12.0,0.,12.0,0.,12.0,0.,12.0
1981-08-24 09:51:18.560 ,1,0,0.,12.0,0.,12.0,0.,12.0,0.,12.0
1981-08-24 09:51:30.560 ,1,0,0.,12.0,0.,12.0,0.,12.0,0.,12.0
1981-08-24 09:51:42.560 ,1,0,0.,12.0,0.,12.0,0.,12.0,0.,12.0
1981-08-24 09:51:54.560 ,1,0,0.,12.0,0.,12.0,0.,12.0,0.,12.0
1981-08-24 09:52:06.560 ,2,0,0.,12.0,0.,12.0,0.,12.0,0.,12.0
1981-08-24 09:52:18.560 ,2,0,0.,12.0,0.,12.0,0.,12.0,0.,12.0
1981-08-24 09:52:30.560 ,2,0,0.,12.0,0.,12.0,0.,12.0,0.,12.0
1981-08-24 09:52:42.560 ,2,0,0.,12.0,0.,12.0,0.,12.0,0.,12.0
1981-08-24 09:52:54.560 ,3,0,0.,12.0,0.,12.0,0.,12.0,0.,12.0
1981-08-24 09:53:06.560 ,3,0,0.,12.0,0.,12.0,0.,12.0,0.,12.0
1981-08-24 09:53:18.560 ,3,0,0.,12.0,0.,12.0,0.,12.0,0.,12.0
1981-08-24 09:53:30.560 ,3,0,0.,12.0,0.,12.0,0.,12.0,0.,12.0
1981-08-24 09:53:42.560 ,4,0,0.,12.0,0.,12.0,0.,12.0,0.,12.0
1981-08-24 09:53:54.560 ,4,0,0.,12.0,0.,12.0,0.,12.0,0.,12.0
1981-08-24 09:54:06.560 ,4,0,0.,12.0,0.,12.0,0.,12.0,0.,12.0
1981-08-24 09:54:18.560 ,4,0,0.,12.0,0.,12.0,0.,12.0,0.,12.0
1981-08-24 09:54:30.560 ,5,0,0.,12.0,0.,12.0,0.,12.0,0.,12.0
1981-08-24 09:54:42.560 ,5,0,0.,12.0,0.,12.0,0.,12.0,0.,12.0
1981-08-24 09:54:54.560 ,5,0,0.,12.0,0.,12.0,0.,12.0,0.,12.0
1981-08-24 09:55:06.560 ,5,0,0.,12.0,0.,12.0,0.,12.0,0.,12.0
1981-08-24 09:55:18.560 ,6,0,0.,12.0,0.,12.0,0.,12.0,0.,12.0
1981-08-24 09:55:30.560 ,6,0,0.,12.0,0.,12.0,0.,12.0,0.,12.0
1981-08-24 09:55:42.560 ,6,0,0.,12.0,0.,12.0,0.,12.0,0.,12.0
1981-08-24 09:55:54.560 ,6,0,0.,12.0,0.,12.0,0.,12.0,0.,12.0
1981-08-24 09:56:06.560 ,7,0,0.,12.0,0.,12.0,0.,12.0,0.,12.0
1981-08-24 09:56:18.560 ,7,0,0.,12.0,0.,12.0,0.,12.0,0.,12.0
1981-08-24 09:56:30.560 ,7,0,0.,12.0,0.,12.0,0.,12.0,0.,12.0
1981-08-24 09:56:42.560 ,7,0,0.,12.0,0.,12.0,0.,12.0,0.,12.0
1981-08-24 09:56:54.560 ,7,0,0.,12.0,0.,12.0,0.,12.0,0.,12.0
1981-08-24 09:57:06.560 ,7,0,0.,12.0,0.,12.0,0.,12.0,0.,12.0
1981-08-24 09:57:18.560 ,6,0,0.,12.0,0.,12.0,0.,12.0,0.,12.0
1981-08-24 09:57:30.560 ,6,0,0.,12.0,0.,12.0,0.,12.0,0.,12.0
1981-08-24 09:57:42.560 ,5,0,0.,12.0,0.,12.0,0.,12.0,0.,12.0
1981-08-24 09:57:54.560 ,5,0,0.,12.0,0.,12.0,0.,12.0,0.,12.0
1981-08-24 09:58:06.560 ,4,0,0.,12.0,0.,12.0,0.,12.0,0.,12.0
1981-08-24 09:58:18.560 ,4,0,0.,12.0,0.,12.0,0.,12.0,0.,12.0
1981-08-24 09:58:30.560 ,3,0,0.,12.0,0.,12.0,0.,12.0,0.,12.0
1981-08-24 09:58:42.560 ,3,0,0.,12.0,0.,12.0,0.,12.0,0.,12.0
1981-08-24 09:58:54.560 ,2,0,0.,12.0,0.,12.0,0.,12.0,0.,12.0
1981-08-24 09:59:06.560 ,2,0,0.,12.0,0.,12.0,0.,12.0,0.,12.0
1981-08-24 09:59:18.560 ,1,0,0.,12.0,0.,12.0,0.,12.0,0.,12.0
1981-08-24 09:59:30.560 ,1,0,0.,12.0,0.,12.0,0.,12.0,0.,12.0
1981-08-24 09:59:42.560 ,0,0,0.,12.0,0.,12.0,0.,12.0,0.,12.0
1981-08-24 09:59:54.560 ,0,0,0.,12.0,0.,12.0,0.,12.0,0.,12.0
1981-08-24 10:00:06.560 ,0,0,0.,12.0,0.,12.0,0.,12.0,0.,12.0
1981-08-24 10:00:18.560 ,0,0,0.,12.0,0.,12.0,0.,12.0,0.,12.0
1981-08-24 10:00:54.560 ,2,0,0.,12.0,0.,12.0,0.,12.0,0.,12.0
1981-08-24 10:01:06.560 ,2,0,0.,12.0,0.,12.0,0.,12.0,0.,12.0
1981-08-24 10:01:18.560 ,3,0,0.,12.0,0.,12.0,0.,12.0,0.,12.0
1981-08-24 10:01:30.560 ,3,0,0.,12.0,0.,12.0,0.,12.0,0.,12.0
1981-08-24 10:01:42.560 ,4,0,0.,12.0,0.,12.0,0.,12.0,0.,12.0
1981-08-24 10:01:54.560 ,4,0,0.,12.0,0.,12.0,0.,12.0,0.,12.0
1981-08-24 10:02:06.560 ,0,0,,0,,0,,0,,0
1981-08-24 10:02:18.560 ,0,0,,0,,0,,0,,0
1981-08-24 10:02:30.560 ,0,0,0.,12.0,0.,12.0,0.,12.0,0.,12.0
1981-08-24 10:02:42.560 ,0,0,0.,12.0,0.,12.0,0.,12.0,0.,12.0
1981-08-24 10:02:54.560 ,7,0,0.,12.0,0.,12.0,0.,12.0,0.,12.0
1981-08-24 10:03:06.560 ,7,0,0.,12.0,0.,12.0,0.,12.0,0.,12.0
1981-08-24 10:03:18.560 ,7,0,0.,12.0,0.,12.0,0.,12.0,0.,12.0
1981-08-24 10:03:30.560 ,7,0,0.,12.0,0.,12.0,0.,12.0,0.,12.0
1981-08-24 10:03:42.560 ,7,0,0.,12.0,0.,12.0,0.,12.0,0.,12.0
1981-08-24 10:03:54.560 ,7,0,0.,12.0,0.,12.0,0.,12.0,0.,12.0
1981-08-24 10:04:06.560 ,6,0,0.,12.0,0.,12.0,0.,12.0,0.,12.0
1981-08-24 10:04:18.560 ,6,0,0.,12.0,0.,12.0,0.,12.0,0.,12.0
1981-08-24 10:04:30.560 ,6,0,0.,12.0,0.,12.0,0.,12.0,0.,12.0
1981-08-24 10:04:42.560 ,6,0,0.,12.0,0.,12.0,0.,12.0,0.,12.0
1981-08-24 10:04:54.560 ,5,0,0.,12.0,0.,12.0,0.,12.0,0.,12.0
1981-08-24 10:05:06.560 ,5,0,0.,12.0,0.,12.0,0.,12.0,0.,12.0
1981-08-24 10:05:18.560 ,5,0,0.,12.0,0.,12.0,0.,12.0,0.,12.0
1981-08-24 10:05:30.560 ,5,0,0.,12.0,0.,12.0,0.,12.0,0.,12.0
1981-08-24 10:05:42.560 ,4,0,0.,12.0,0.,12.0,0.,12.0,0.,12.0
1981-08-24 10:05:54.560 ,4,0,0.,12.0,0.,12.0,0.,12.0,0.,12.0
1981-08-24 10:06:06.560 ,4,0,0.,12.0,0.,12.0,0.,12.0,0.,12.0
1981-08-24 10:06:18.560 ,4,0,0.,12.0,0.,12.0,0.,12.0,0.,12.0
1981-08-24 10:06:30.560 ,3,0,0.,12.0,0.,12.0,0.,12.0,0.,12.0
1981-08-24 10:06:42.560 ,3,0,0.,12.0,0.,12.0,0.,12.0,0.,12.0
1981-08-24 10:06:54.560 ,3,0,0.,12.0,0.,12.0,0.,12.0,0.,12.0
1981-08-24 10:07:06.560 ,3,0,0.,12.0,0.,12.0,0.,12.0,0.,12.0
1981-08-24 10:07:18.560 ,2,0,0.,12.0,0.,12.0,0.,12.0,0.,12.0
1981-08-24 10:07:30.560 ,2,0,0.,12.0,0.,12.0,0.,12.0,0.,12.0
1981-08-24 10:07:42.560 ,2,0,0.,12.0,0.,12.0,0.,12.0,0.,12.0
1981-08-24 10:07:54.560 ,2,0,0.,12.0,0.,12.0,0.,12.0,0.,12.0
1981-08-24 10:08:06.560 ,1,0,0.,12.0,0.,12.0,0.,12.0,0.,12.0
1981-08-24 10:08:18.560 ,1,0,0.,12.0,0.,12.0,0.,12.0,0.,12.0
1981-08-24 10:08:30.560 ,1,0,0.,12.0,0.,12.0,0.,12.0,0.,12.0
1981-08-24 10:08:42.560 ,1,0,0.,12.0,0.,12.0,0.,12.0,0.,12.0
1981-08-24 10:08:54.560 ,0,0,0.,12.0,0.,12.0,0.,12.0,0.,12.0
1981-08-24 10:09:06.560 ,0,0,0.,12.0,0.,12.0,0.,12.0,0.,12.0
1981-08-24 10:09:18.560 ,0,0,0.,12.0,0.,12.0,0.,12.0,0.,12.0
1981-08-24 10:09:30.560 ,0,0,0.,12.0,0.,12.0,0.,12.0,0.,12.0
1981-08-24 10:09:42.560 ,0,0,0.,12.0,0.,12.0,0.,12.0,0.,12.0
1981-08-24 10:09:54.560 ,0,0,0.,12.0,0.,12.0,0.,12.0,0.,12.0
1981-08-24 10:10:06.560 ,0,0,,0,,0,,0,,0
1981-08-24 10:10:18.560 ,0,0,,0,,0,,0,,0
1981-08-24 10:10:30.560 ,1,0,0.,12.0,0.,12.0,0.,12.0,0.,12.0
1981-08-24 10:10:42.560 ,1,0,0.,12.0,0.,12.0,0.,12.0,0.,12.0
1981-08-24 10:10:54.560 ,1,0,0.,12.0,0.,12.0,0.,12.0,0.,12.0
1981-08-24 10:11:06.560 ,1,0,0.,12.0,0.,12.0,0.,12.0,0.,12.0
1981-08-24 10:11:18.560 ,2,0,0.,12.0,0.,12.0,0.,12.0,0.,12.0
1981-08-24 10:11:30.560 ,2,0,0.,12.0,0.,12.0,0.,12.0,0.,12.0
1981-08-24 10:11:42.560 ,2,0,0.,12.0,0.,12.0,0.,12.0,0.,12.0
1981-08-24 10:11:54.560 ,2,0,0.,12.0,0.,12.0,0.,12.0,0.,12.0
1981-08-24 10:12:06.560 ,3,0,0.,12.0,0.,12.0,0.,12.0,0.,12.0
1981-08-24 10:12:18.560 ,3,0,0.,12.0,0.,12.0,0.,12.0,0.,12.0
1981-08-24 10:12:30.560 ,3,0,0.,12.0,0.,12.0,0.,12.0,0.,12.0
1981-08-24 10:12:42.560 ,3,0,0.,12.0,0.,12.0,0.,12.0,0.,12.0
1981-08-24 10:12:54.560 ,4,0,0.,12.0,0.,12.0,0.,12.0,0.,12.0
1981-08-24 10:13:06.560 ,4,0,0.,12.0,0.,12.0,0.,12.0,0.,12.0
1981-08-24 10:13:18.560 ,4,0,0.,12.0,0.,12.0,0.,12.0,0.,12.0
1981-08-24 10:13:30.560 ,4,0,0.,12.0,0.,12.0,0.,12.0,0.,12.0
1981-08-24 10:13:42.560 ,5,0,0.,12.0,0.,12.0,0.,12.0,0.,12.0
1981-08-24 10:13:54.560 ,5,0,0.,12.0,0.,12.0,0.,12.0,0.,12.0
1981-08-24 10:14:06.560 ,5,0,0.,12.0,0.,12.0,0.,12.0,0.,12.0
1981-08-24 10:14:18.560 ,5,0,0.,12.0,0.,12.0,0.,12.0,0.,12.0
1981-08-24 10:14:30.560 ,6,0,0.,12.0,0.,12.0,0.,12.0,0.,12.0
1981-08-24 10:14:42.560 ,6,0,0.,12.0,0.,12.0,0.,12.0,0.,12.0
1981-08-24 10:14:54.560 ,6,0,0.,12.0,0.,12.0,0.,12.0,0.,12.0
1981-08-24 10:15:06.560 ,6,0,0.,12.0,0.,12.0,0.,12.0,0.,12.0
1981-08-24 10:15:18.560 ,7,0,0.,12.0,0.,12.0,0.,12.0,0.,12.0
1981-08-24 10:15:30.560 ,7,0,0.,12.0,0.,12.0,0.,12.0,0.,12.0
1981-08-24 10:15:42.560 ,7,0,0.,12.0,0.,12.0,0.,12.0,0.,12.0
1981-08-24 10:15:54.560 ,7,0,0.,12.0,0.,12.0,0.,12.0,0.,12.0
1981-08-24 10:16:06.560 ,7,0,0.,12.0,0.,12.0,0.,12.0,0.,12.0
1981-08-24 10:16:18.560 ,7,0,0.,12.0,0.,12.0,0.,12.0,0.,12.0
1981-08-24 10:16:30.560 ,6,0,0.,12.0,0.,12.0,0.,12.0,0.,12.0
1981-08-24 10:16:42.560 ,6,0,0.,12.0,0.,12.0,0.,12.0,0.,12.0
1981-08-24 10:16:54.560 ,5,0,0.,12.0,0.,12.0,0.,12.0,0.,12.0
1981-08-24 10:17:06.560 ,5,0,0.,12.0,0.,12.0,0.,12.0,0.,12.0
1981-08-24 10:17:18.560 ,4,0,0.,12.0,0.,12.0,0.,12.0,0.,12.0
1981-08-24 10:17:30.560 ,4,0,0.,12.0,0.,12.0,0.,12.0,0.,12.0
1981-08-24 10:17:42.560 ,3,0,0.,12.0,0.,12.0,0.,12.0,0.,12.0
1981-08-24 10:17:54.560 ,3,0,0.,12.0,0.,12.0,0.,12.0,0.,12.0
1981-08-24 10:18:06.560 ,2,0,0.,12.0,0.,12.0,0.,12.0,0.,12.0
1981-08-24 10:18:18.560 ,2,0,0.,12.0,0.,12.0,0.,12.0,0.,12.0
1981-08-24 10:18:30.560 ,1,0,0.,12.0,0.,12.0,0.,12.0,0.,12.0
1981-08-24 10:18:42.560 ,1,0,0.,12.0,0.,12.0,0.,12.0,0.,12.0
1981-08-24 10:18:54.560 ,0,0,0.,12.0,0.,12.0,0.,12.0,0.,12.0
1981-08-24 10:19:06.560 ,0,0,0.,12.0,0.,12.0,0.,12.0,0.,12.0
1981-08-24 10:19:18.560 ,0,0,0.,12.0,0.,12.0,0.,12.0,0.,12.0
1981-08-24 10:19:30.560 ,0,0,0.,12.0,0.,12.0,0.,12.0,0.,12.0
1981-08-24 10:19:42.560 ,1,0,0.,12.0,0.,12.0,0.,12.0,0.,12.0
1981-08-24 10:19:54.560 ,1,0,0.,12.0,0.,12.0,0.,12.0,0.,12.0
1981-08-24 10:20:06.560 ,2,0,0.,12.0,0.,12.0,0.,12.0,0.,12.0
1981-08-24 10:20:18.560 ,2,0,0.,12.0,0.,12.0,0.,12.0,0.,12.0
1981-08-24 10:20:30.560 ,3,0,0.,12.0,0.,12.0,0.,12.0,0.,12.0
1981-08-24 10:20:42.560 ,3,0,0.,12.0,0.,12.0,0.,12.0,0.,12.0
1981-08-24 10:20:54.560 ,4,0,0.,12.0,0.,12.0,0.,12.0,0.,12.0
1981-08-24 10:21:06.560 ,4,0,0.,12.0,0.,12.0,0.,12.0,0.,12.0
1981-08-24 10:21:18.560 ,0,0,0.,12.0,0.,12.0,0.,12.0,0.,12.0
1981-08-24 10:21:30.560 ,0,0,,0,,0,,0,,0
1981-08-24 10:21:18.560 ,5,0,0.,12.0,0.,12.0,0.,12.0,0.,12.0
1981-08-24 10:21:30.560 ,5,0,0.,12.0,0.,12.0,0.,12.0,0.,12.0